Flag for Canada Weather past 2 weeks in Saguenay, Quebec, Canada

Now
32 °F

Chilly.


Feels Like: 23 °F
Forecast: 26 / 39 °F
Wind: 10 mph from South

Location: Jonquiere Airport

Current Time: Mar 30, 2015 at 8:58:05 AM

Latest Report: Mar 30, 2015 at 8:00 AM


Visibility: N/A

Pressure: 29.62 "Hg

Humidity: 51%

Dew point: 16 °F

Location of SaguenayLocation

Historic Weather in Saguenay — Graph

°F

Saguenay temperature yesterday

Maximum temperature yesterday: 40 °F (at 4:00 PM)
Minimum temperature yesterday: 3 °F (at 7:00 AM)
Average temperature yesterday: 23 °F

Past Weeks' High & Low Weather Summary

 TemperatureHumidityPressure
High41 °F (Mar 25, 4:00 PM)97% (Mar 21, 3:00 PM)30.41 "Hg (Mar 21, 3:00 PM)
Low-4 °F (Mar 22, 8:00 AM)21% (Mar 24, 6:00 PM)29.47 "Hg (Mar 17, 11:00 AM)
Average19 °F61%29.97 "Hg
* Reported Mar 15 7:00 AM — Mar 30 7:00 AM, Saguenay, Weather by CustomWeather, © 2015

Note: Actual official high and low records may vary slightly from our data, if they occured in-between our weather recording intervals... More about our weather records

Advertising

Saguenay weather history for previous 24 hours

 ConditionsComfort  
Time TempWeatherWind HumidityBarometerVisibility
7:00 AM
Mon, Mar 30
31 °FChilly.10 mph58%29.63 "HgN/A
6:00 AM30 °FChilly.12 mph71%29.66 "HgN/A
5:00 AM31 °FChilly.15 mph69%29.68 "HgN/A
4:00 AM32 °FChilly.17 mph53%29.70 "HgN/A
3:00 AM32 °FChilly.6 mph45%29.73 "HgN/A
2:00 AM32 °FChilly.10 mph42%29.75 "HgN/A
1:00 AM31 °FChilly.6 mph40%29.76 "HgN/A
12:00 AM32 °FChilly.7 mph40%29.80 "HgN/A
11:00 PM
Sun, Mar 29
33 °FChilly.6 mph40%29.81 "HgN/A
10:00 PM33 °FChilly.10 mph44%29.82 "HgN/A
9:00 PM33 °FChilly.7 mph47%29.83 "HgN/A
8:00 PM34 °FChilly.9 mph40%29.83 "HgN/A
7:00 PM36 °FChilly.17 mph35%29.84 "HgN/A
6:00 PM39 °FChilly.14 mph31%29.85 "HgN/A
5:00 PM39 °FChilly.9 mph33%29.88 "HgN/A
4:00 PM40 °FChilly.13 mph27%29.90 "HgN/A
3:00 PM38 °FChilly.14 mph26%29.92 "HgN/A
2:00 PM37 °FChilly.10 mph31%29.96 "HgN/A
1:00 PM32 °FChilly.5 mph37%30.00 "HgN/A
12:00 PM27 °FChilly.3 mph42%30.04 "HgN/A
11:00 AM24 °FCold.2 mph38%30.08 "HgN/A
10:00 AM20 °FCold.3 mph47%30.10 "HgN/A
9:00 AM12 °FCold.2 mph69%30.12 "HgN/A
8:00 AM7 °FFrigid.2 mph74%30.12 "HgN/A
Weather by CustomWeather, © 2015

See weather overviewHow to use our weather pages